Preview of NWS' New Version of Forecast
This preview is not operational and should not be used for support decisions.

Regional Weather Roundup (RWR)

Issued by Philadelphia/Mt Holly (PHI)

                            
000
ASUS41 KPHI 250912
RWRPHI

REGIONAL WEATHER ROUNDUP
NATIONAL WEATHER SERVICE MOUNT HOLLY NJ
500 AM EDT SAT MAY 25 2019

NOTE:  "FAIR" INDICATES FEW OR NO CLOUDS BELOW 12,000 FEET WITH NO
SIGNIFICANT WEATHER AND/OR OBSTRUCTIONS TO VISIBILITY.

 * = STATION DOES NOT REPORT PRECIPITATION (E.G. RAIN, SNOW, ETC.) 
        OR FOG.

NJZ015>026-251000-
SOUTHERN NEW JERSEY
  
CITY           SKY/WX    TMP DP  RH WIND       PRES   REMARKS
POMONA         FAIR      57  52  83 SE9       30.17R                  
WILDWOOD*      FAIR      57  52  83 E9        30.17R                  
MILLVILLE      FAIR      55  52  89 SE5       30.16R                  
WRIGHTSTOWN    FAIR      53  50  88 CALM      30.15R                  
MOUNT HOLLY    FAIR      55  50  83 SE3       30.17R                  
TRENTON        FAIR      53  48  83 SE3       30.17R                  

$$
NJZ001>014-251000-
NORTHERN NEW JERSEY
  
CITY           SKY/WX    TMP DP  RH WIND       PRES   REMARKS
SUSSEX         LGT RAIN  46  45  96 CALM      30.18R                  
ANDOVER*         N/A     48  46  93 CALM      30.17R                  
MORRISTOWN     FAIR      50  50 100 CALM      30.18R                  
NEWARK         FAIR      58  51  78 SE7       30.17R                  
TETERBORO      FAIR      56  50  80 CALM      30.16R                  
CALDWELL       FAIR      55  51  86 CALM      30.18R                  
SOMERVILLE     FAIR      50  48  93 CALM      30.16R                  
ALLAIRE*       FAIR      54  50  86 SE5       30.18R                  
TOMS RIVER*    FAIR      48  46  93 CALM      30.18R                  

$$
PAZ043-044-047-054-055-060>062-066>071-251000-
EASTERN PENNSYLVANIA
  
CITY           SKY/WX    TMP DP  RH WIND       PRES   REMARKS
PHILADELPHIA   FAIR      59  50  72 E6        30.17R                  
NORTH PHILA    FAIR      58  48  69 SE5       30.19R                  
BLUE BELL*     FAIR      50  50  98 CALM      30.17R                  
DOYLESTOWN     FAIR      53  47  79 N3        30.16R                  
QUAKERTOWN*    CLEAR     50  50 100 CALM      30.17                   
PERKASIE*      FAIR      50  50 100 CALM      30.18R                  
POTTSTOWN      FAIR      51  49  92 CALM      30.19R                  
LANCASTER      MOCLDY    61  52  72 CALM      30.17R                  
COATESVILLE    MOCLDY    57  50  77 CALM      30.18R                  
WEST CHESTER   FAIR      55  50  82 CALM      30.17R                  
READING        FAIR      56  52  86 CALM      30.16R                  
ALLENTOWN      FAIR      53  48  83 CALM      30.16S                  
QN CITY/ALNTWN FAIR      54  50  87 CALM      30.18S                  
MOUNT POCONO   FAIR      47  46  97 N3        30.18R                  
HAZLETON       FAIR      45  43  93 CALM      30.21R                  
LEHIGHTON      FAIR      46  46 100 CALM      30.19R                  
WILKES BARRE   FAIR      50  47  89 E5        30.17R                  

$$
DEZALL-MDZ008-012-015-019-020-251000-
DELAWARE AND EASTERN MARYLAND
  
CITY           SKY/WX    TMP DP  RH WIND       PRES   REMARKS
WILMINGTON     MOCLDY    62  51  67 E5        30.17R                  
DOVER          MOCLDY    62  53  73 E10       30.15S                  
CHESWOLD         N/A     63  52  67 E5        30.16S                  
GEORGETOWN     FAIR      60  55  83 E3        30.16R                  
EASTON         MOCLDY    65  56  72 E6        30.20R                  
STEVENSVILLE   CLOUDY    66  54  63 E7        30.16R                  
PATUXENT       MOCLDY    67  58  72 SE10      30.15                   
OCEAN CITY     FAIR      61  57  87 E7        30.15R                  
WALLOPS ISLAND CLOUDY    65  58  78 E8        30.14R                  
CAMBRIDGE      MOCLDY    63  55  77 E5        30.16R                  
SALISBURY      CLOUDY    63  56  78 E6        30.14R                  

$$
PAZ001-021-NYZ056-072-MDZ011-DCZ001-251000-
OTHER NEARBY LOCATIONS
  
CITY           SKY/WX    TMP DP  RH WIND       PRES   REMARKS
HARRISBURG     CLOUDY    63  52  67 SE7       30.16R                  
STATE COLLEGE  FAIR      56  51  83 CALM      30.16R                  
WILLIAMSPORT   FAIR      54  49  83 CALM      30.16R                  
BINGHAMTON     FAIR      47  45  93 SE3       30.16S                  
NEW YORK CITY  FAIR      57  49  74 VRB3      30.20R                  
BALTIMORE      MOCLDY    66  53  63 E8        30.15R                  
WASHINGTON DC  CLOUDY    68  56  65 SE7       30.16R                  

$$